Time,TemperatureF,DewpointF,PressureIn,WindDirection,WindDirectionDegrees,WindSpeedMPH,WindSpeedGustMPH,Humidity,HourlyPrecipIn,Conditions,Clouds,dailyrainin,SoftwareType,DateUTC
2013-04-28 00:02:00,45.8,31.0,30.52,NW,323,2.0,2.0,56,0.00,,,0.00,weatherlink.com 1.10,2013-04-28 04:02:00,
2013-04-28 00:17:00,45.5,30.0,30.52,NW,325,0.0,2.0,56,0.00,,,0.00,weatherlink.com 1.10,2013-04-28 04:17:00,
2013-04-28 00:32:00,44.9,29.0,30.53,NW,323,1.0,1.0,55,0.00,,,0.00,weatherlink.com 1.10,2013-04-28 04:32:00,
2013-04-28 00:47:00,44.7,31.0,30.52,WNW,294,0.0,1.0,58,0.00,,,0.00,weatherlink.com 1.10,2013-04-28 04:47:00,
2013-04-28 01:02:00,44.2,30.0,30.52,NW,326,1.0,2.0,59,0.00,,,0.00,weatherlink.com 1.10,2013-04-28 05:02:00,
2013-04-28 01:17:00,44.4,30.0,30.52,NW,323,1.0,2.0,58,0.00,,,0.00,weatherlink.com 1.10,2013-04-28 05:17:00,
2013-04-28 01:32:00,44.4,31.0,30.52,NW,316,1.0,2.0,59,0.00,,,0.00,weatherlink.com 1.10,2013-04-28 05:32:00,
2013-04-28 01:47:00,44.2,31.0,30.51,NNW,328,2.0,2.0,61,0.00,,,0.00,weatherlink.com 1.10,2013-04-28 05:47:00,
2013-04-28 02:02:00,44.1,30.0,30.51,NW,326,0.0,1.0,58,0.00,,,0.00,weatherlink.com 1.10,2013-04-28 06:02:00,
2013-04-28 02:17:00,43.9,30.0,30.51,NW,319,1.0,2.0,59,0.00,,,0.00,weatherlink.com 1.10,2013-04-28 06:17:00,
2013-04-28 02:32:00,43.0,31.0,30.50,NW,326,1.0,2.0,62,0.00,,,0.00,weatherlink.com 1.10,2013-04-28 06:32:00,
2013-04-28 02:47:00,43.0,31.0,30.50,NW,319,1.0,2.0,62,0.00,,,0.00,weatherlink.com 1.10,2013-04-28 06:47:00,
2013-04-28 03:02:00,42.5,31.0,30.49,NW,326,2.0,3.0,64,0.00,,,0.00,weatherlink.com 1.10,2013-04-28 07:02:00,
2013-04-28 03:17:00,42.5,30.0,30.48,NW,326,0.0,1.0,62,0.00,,,0.00,weatherlink.com 1.10,2013-04-28 07:17:00,
2013-04-28 03:32:00,43.2,30.0,30.48,NW,322,1.0,2.0,59,0.00,,,0.00,weatherlink.com 1.10,2013-04-28 07:32:00,
2013-04-28 03:47:00,43.2,30.0,30.48,NW,322,1.0,2.0,60,0.00,,,0.00,weatherlink.com 1.10,2013-04-28 07:47:00,
2013-04-28 04:03:00,42.8,30.0,30.48,NW,309,1.0,2.0,61,0.00,,,0.00,weatherlink.com 1.10,2013-04-28 08:03:00,
2013-04-28 04:17:00,42.8,30.0,30.48,NW,322,1.0,2.0,62,0.00,,,0.00,weatherlink.com 1.10,2013-04-28 08:17:00,
2013-04-28 04:33:00,42.7,30.0,30.48,NW,319,1.0,2.0,61,0.00,,,0.00,weatherlink.com 1.10,2013-04-28 08:33:00,
2013-04-28 04:48:00,41.8,30.0,30.48,NW,319,0.0,2.0,64,0.00,,,0.00,weatherlink.com 1.10,2013-04-28 08:48:00,
2013-04-28 05:03:00,41.0,30.0,30.48,NW,319,0.0,0.0,65,0.00,,,0.00,weatherlink.com 1.10,2013-04-28 09:03:00,
2013-04-28 05:18:00,41.0,30.0,30.48,NW,319,1.0,1.0,64,0.00,,,0.00,weatherlink.com 1.10,2013-04-28 09:18:00,
2013-04-28 05:33:00,40.4,31.0,30.48,NW,319,1.0,2.0,68,0.00,,,0.00,weatherlink.com 1.10,2013-04-28 09:33:00,
2013-04-28 05:48:00,40.2,29.0,30.48,NW,319,0.0,1.0,64,0.00,,,0.00,weatherlink.com 1.10,2013-04-28 09:48:00,
2013-04-28 06:03:00,39.9,30.0,30.48,NW,319,0.0,1.0,68,0.00,,,0.00,weatherlink.com 1.10,2013-04-28 10:03:00,
2013-04-28 06:18:00,40.4,31.0,30.49,NW,319,0.0,0.0,68,0.00,,,0.00,weatherlink.com 1.10,2013-04-28 10:18:00,
2013-04-28 06:33:00,40.9,30.0,30.49,NW,319,0.0,0.0,65,0.00,,,0.00,weatherlink.com 1.10,2013-04-28 10:33:00,
2013-04-28 06:48:00,40.7,30.0,30.49,NW,319,0.0,0.0,66,0.00,,,0.00,weatherlink.com 1.10,2013-04-28 10:48:00,
2013-04-28 07:03:00,41.6,31.0,30.50,NW,319,0.0,0.0,66,0.00,,,0.00,weatherlink.com 1.10,2013-04-28 11:03:00,
2013-04-28 07:18:00,42.9,33.0,30.50,NW,321,0.0,0.0,67,0.00,,,0.00,weatherlink.com 1.10,2013-04-28 11:18:00,
2013-04-28 07:33:00,45.6,32.0,30.49,NW,321,0.0,0.0,60,0.00,,,0.00,weatherlink.com 1.10,2013-04-28 11:33:00,
2013-04-28 07:48:00,47.1,33.0,30.49,NW,320,0.0,0.0,58,0.00,,,0.00,weatherlink.com 1.10,2013-04-28 11:48:00,
2013-04-28 08:03:00,49.5,32.0,30.50,SE,142,1.0,3.0,51,0.00,,,0.00,weatherlink.com 1.10,2013-04-28 12:03:00,
2013-04-28 08:18:00,52.1,32.0,30.50,South,186,3.0,3.0,47,0.00,,,0.00,weatherlink.com 1.10,2013-04-28 12:18:00,
2013-04-28 08:33:00,54.5,33.0,30.50,SSW,205,3.0,3.0,44,0.00,,,0.00,weatherlink.com 1.10,2013-04-28 12:33:00,
2013-04-28 08:48:00,57.0,34.0,30.49,SW,220,0.0,3.0,42,0.00,,,0.00,weatherlink.com 1.10,2013-04-28 12:48:00,
2013-04-28 09:03:00,59.0,34.0,30.49,SSW,210,2.0,4.0,39,0.00,,,0.00,weatherlink.com 1.10,2013-04-28 13:03:00,
2013-04-28 09:18:00,59.1,32.0,30.48,East,98,3.0,5.0,36,0.00,,,0.00,weatherlink.com 1.10,2013-04-28 13:18:00,
2013-04-28 09:33:00,60.5,34.0,30.48,ENE,63,2.0,3.0,37,0.00,,,0.00,weatherlink.com 1.10,2013-04-28 13:33:00,
2013-04-28 09:48:00,61.5,33.0,30.48,SSW,208,1.0,5.0,35,0.00,,,0.00,weatherlink.com 1.10,2013-04-28 13:48:00,
2013-04-28 10:03:00,63.8,38.0,30.47,SW,219,3.0,6.0,38,0.00,,,0.00,weatherlink.com 1.10,2013-04-28 14:03:00,
2013-04-28 10:18:00,64.1,34.0,30.47,NE,39,2.0,4.0,33,0.00,,,0.00,weatherlink.com 1.10,2013-04-28 14:18:00,
2013-04-28 10:33:00,64.1,33.0,30.47,SW,218,4.0,7.0,32,0.00,,,0.00,weatherlink.com 1.10,2013-04-28 14:33:00,
2013-04-28 10:49:00,65.4,35.0,30.47,SW,234,0.0,6.0,33,0.00,,,0.00,weatherlink.com 1.10,2013-04-28 14:49:00,
2013-04-28 11:04:00,65.5,33.0,30.46,NNE,19,4.0,5.0,30,0.00,,,0.00,weatherlink.com 1.10,2013-04-28 15:04:00,
2013-04-28 11:19:00,65.0,34.0,30.45,SSE,161,4.0,7.0,31,0.00,,,0.00,weatherlink.com 1.10,2013-04-28 15:19:00,
2013-04-28 11:34:00,66.9,38.0,30.45,WNW,300,2.0,5.0,34,0.00,,,0.00,weatherlink.com 1.10,2013-04-28 15:34:00,
2013-04-28 11:49:00,67.7,34.0,30.44,SSE,162,2.0,4.0,29,0.00,,,0.00,weatherlink.com 1.10,2013-04-28 15:49:00,
2013-04-28 12:04:00,66.2,31.0,30.44,NNE,12,0.0,6.0,27,0.00,,,0.00,weatherlink.com 1.10,2013-04-28 16:04:00,
2013-04-28 12:19:00,65.8,35.0,30.43,SW,214,3.0,8.0,32,0.00,,,0.00,weatherlink.com 1.10,2013-04-28 16:19:00,
2013-04-28 12:34:00,67.1,34.0,30.42,SW,221,3.0,6.0,29,0.00,,,0.00,weatherlink.com 1.10,2013-04-28 16:34:00,
2013-04-28 12:49:00,66.4,36.0,30.42,SSW,212,1.0,9.0,32,0.00,,,0.00,weatherlink.com 1.10,2013-04-28 16:49:00,
2013-04-28 13:04:00,66.8,35.0,30.41,South,180,2.0,7.0,31,0.00,,,0.00,weatherlink.com 1.10,2013-04-28 17:04:00,
2013-04-28 13:19:00,66.8,36.0,30.41,SW,219,3.0,12.0,32,0.00,,,0.00,weatherlink.com 1.10,2013-04-28 17:19:00,
2013-04-28 13:34:00,65.7,36.0,30.40,SSW,208,4.0,10.0,34,0.00,,,0.00,weatherlink.com 1.10,2013-04-28 17:34:00,
2013-04-28 13:49:00,65.9,35.0,30.40,SW,217,2.0,13.0,32,0.00,,,0.00,weatherlink.com 1.10,2013-04-28 17:49:00,
2013-04-28 14:04:00,64.5,35.0,30.40,South,174,3.0,10.0,34,0.00,,,0.00,weatherlink.com 1.10,2013-04-28 18:04:00,
2013-04-28 14:19:00,64.0,36.0,30.39,SSE,160,3.0,13.0,35,0.00,,,0.00,weatherlink.com 1.10,2013-04-28 18:19:00,
2013-04-28 14:34:00,64.3,37.0,30.39,SW,215,2.0,10.0,36,0.00,,,0.00,weatherlink.com 1.10,2013-04-28 18:34:00,
2013-04-28 14:49:00,65.1,36.0,30.38,South,191,5.0,11.0,34,0.00,,,0.00,weatherlink.com 1.10,2013-04-28 18:49:00,
2013-04-28 15:04:00,64.3,36.0,30.37,SSW,210,4.0,9.0,35,0.00,,,0.00,weatherlink.com 1.10,2013-04-28 19:04:00,
2013-04-28 15:19:00,64.2,36.0,30.37,South,183,5.0,10.0,35,0.00,,,0.00,weatherlink.com 1.10,2013-04-28 19:19:00,
2013-04-28 15:34:00,63.6,35.0,30.37,SE,125,1.0,8.0,35,0.00,,,0.00,weatherlink.com 1.10,2013-04-28 19:34:00,
2013-04-28 15:49:00,64.2,36.0,30.36,ESE,113,4.0,9.0,35,0.00,,,0.00,weatherlink.com 1.10,2013-04-28 19:49:00,
2013-04-28 16:04:00,64.9,35.0,30.36,SW,226,3.0,9.0,33,0.00,,,0.00,weatherlink.com 1.10,2013-04-28 20:04:00,
2013-04-28 16:19:00,64.5,35.0,30.36,SE,126,8.0,14.0,33,0.00,,,0.00,weatherlink.com 1.10,2013-04-28 20:19:00,
2013-04-28 16:34:00,64.4,35.0,30.36,SSE,153,0.0,14.0,33,0.00,,,0.00,weatherlink.com 1.10,2013-04-28 20:34:00,
2013-04-28 16:49:00,64.4,35.0,30.36,SW,228,1.0,11.0,34,0.00,,,0.00,weatherlink.com 1.10,2013-04-28 20:49:00,
2013-04-28 17:04:00,63.7,35.0,30.35,SSW,212,7.0,15.0,35,0.00,,,0.00,weatherlink.com 1.10,2013-04-28 21:04:00,
2013-04-28 17:19:00,63.1,34.0,30.35,SSW,194,9.0,18.0,34,0.00,,,0.00,weatherlink.com 1.10,2013-04-28 21:19:00,
2013-04-28 17:34:00,62.6,34.0,30.35,SSW,208,3.0,11.0,35,0.00,,,0.00,weatherlink.com 1.10,2013-04-28 21:34:00,
2013-04-28 17:49:00,62.3,35.0,30.35,SW,221,4.0,13.0,36,0.00,,,0.00,weatherlink.com 1.10,2013-04-28 21:49:00,
2013-04-28 18:04:00,62.0,35.0,30.34,SW,214,4.0,10.0,36,0.00,,,0.00,weatherlink.com 1.10,2013-04-28 22:04:00,
2013-04-28 18:19:00,61.5,36.0,30.34,SW,221,2.0,12.0,39,0.00,,,0.00,weatherlink.com 1.10,2013-04-28 22:19:00,
2013-04-28 18:34:00,61.1,36.0,30.33,SSW,198,7.0,15.0,39,0.00,,,0.00,weatherlink.com 1.10,2013-04-28 22:34:00,
2013-04-28 18:49:00,60.6,37.0,30.33,SW,232,8.0,15.0,42,0.00,,,0.00,weatherlink.com 1.10,2013-04-28 22:49:00,
2013-04-28 19:05:00,59.9,38.0,30.33,East,92,1.0,10.0,44,0.00,,,0.00,weatherlink.com 1.10,2013-04-28 23:05:00,
2013-04-28 19:19:00,59.2,38.0,30.33,SSW,198,2.0,9.0,46,0.00,,,0.00,weatherlink.com 1.10,2013-04-28 23:19:00,
2013-04-28 19:34:00,58.6,38.0,30.34,SSW,203,1.0,12.0,47,0.00,,,0.00,weatherlink.com 1.10,2013-04-28 23:34:00,
2013-04-28 19:49:00,58.0,38.0,30.34,South,172,2.0,7.0,48,0.00,,,0.00,weatherlink.com 1.10,2013-04-28 23:49:00,
2013-04-28 20:04:00,57.5,38.0,30.35,South,172,0.0,6.0,48,0.00,,,0.00,weatherlink.com 1.10,2013-04-29 00:04:00,
2013-04-28 20:19:00,57.0,38.0,30.35,SW,228,2.0,10.0,49,0.00,,,0.00,weatherlink.com 1.10,2013-04-29 00:19:00,
2013-04-28 20:34:00,56.5,38.0,30.35,SSW,200,2.0,7.0,50,0.00,,,0.00,weatherlink.com 1.10,2013-04-29 00:34:00,
2013-04-28 20:49:00,55.9,37.0,30.36,SSW,208,2.0,8.0,50,0.00,,,0.00,weatherlink.com 1.10,2013-04-29 00:49:00,
2013-04-28 21:04:00,55.5,36.0,30.36,SSW,212,2.0,5.0,49,0.00,,,0.00,weatherlink.com 1.10,2013-04-29 01:04:00,
2013-04-28 21:19:00,55.0,36.0,30.36,SE,131,2.0,7.0,49,0.00,,,0.00,weatherlink.com 1.10,2013-04-29 01:19:00,
2013-04-28 21:34:00,54.4,35.0,30.37,SW,229,0.0,5.0,49,0.00,,,0.00,weatherlink.com 1.10,2013-04-29 01:34:00,
2013-04-28 21:49:00,53.9,35.0,30.37,SSW,208,1.0,4.0,50,0.00,,,0.00,weatherlink.com 1.10,2013-04-29 01:49:00,
2013-04-28 22:04:00,53.8,35.0,30.37,SSW,211,1.0,7.0,50,0.00,,,0.00,weatherlink.com 1.10,2013-04-29 02:04:00,
2013-04-28 22:20:00,53.5,35.0,30.37,SW,229,0.0,9.0,50,0.00,,,0.00,weatherlink.com 1.10,2013-04-29 02:20:00,
2013-04-28 22:35:00,53.0,35.0,30.37,SSW,212,1.0,7.0,50,0.00,,,0.00,weatherlink.com 1.10,2013-04-29 02:35:00,
2013-04-28 22:50:00,52.7,35.0,30.38,SSE,150,4.0,5.0,51,0.00,,,0.00,weatherlink.com 1.10,2013-04-29 02:50:00,
2013-04-28 23:05:00,52.5,34.0,30.38,South,173,2.0,7.0,50,0.00,,,0.00,weatherlink.com 1.10,2013-04-29 03:05:00,
2013-04-28 23:20:00,52.3,34.0,30.37,SSW,197,0.0,3.0,50,0.00,,,0.00,weatherlink.com 1.10,2013-04-29 03:20:00,
2013-04-28 23:35:00,52.5,34.0,30.38,SW,222,1.0,5.0,50,0.00,,,0.00,weatherlink.com 1.10,2013-04-29 03:35:00,
2013-04-28 23:50:00,52.5,34.0,30.37,SSW,208,2.0,8.0,50,0.00,,,0.00,weatherlink.com 1.10,2013-04-29 03:50:00,